Weather History for KAUW - October, 2013

Change the Weather History Date:

Friday, October 4, 2013

  Actual Average Record
Temperature  
Mean Temperature 55 °F 50 °F  
Max Temperature 56 °F 61 °F 82 °F (1922)
Min Temperature 54 °F 40 °F 25 °F (1935)
Degree Days  
Heating Degree Days 10 15  
Month to date heating degree days 26 56  
Since 1 July heating degree days 254 349  
Cooling Degree Days 0 0  
Month to date cooling degree days 0 0  
Year to date cooling degree days 506 405  
Growing Degree Days 4 (Base 50)    
Moisture  
Dew Point 53 °F    
Average Humidity 90    
Maximum Humidity 93    
Minimum Humidity 86    
Precipitation  
Precipitation 0.31 in 0.11 in 2.03 in (1942)
Month to date precipitation 1.11 0.45  
Year to date precipitation 31.50 26.56  
Snow  
Snow 0.00 in 0.10 in 0.00 in ()
Month to date snowfall 0.0 0.1  
Since 1 July snowfall 0.0 0.1  
Snow Depth 0.00 in    
Sea Level Pressure  
Sea Level Pressure 30.00 in    
Wind  
Wind Speed 8 mph (ENE)    
Max Wind Speed 17 mph    
Max Gust Speed 23 mph    
Visibility 9 miles    
Events Rain , Thunderstorm    
T = Trace of Precipitation, MM = Missing Value Source: NWS Daily Summary

Daily Weather History Graph

Daily Weather History Graph

Search for Another Location

Airport or City:

Trip Planner

Search our weather history database for the weather conditions in past years. The results will help you decide how hot, cold, wet, or windy it might be!

Date:

Astronomy

Oct. 04, 2013 Rise Set
Actual Time 7:00 AM CDT 6:32 PM CDT
Civil Twilight 6:31 AM CDT 7:02 PM CDT
Nautical Twilight 5:57 AM CDT 7:36 PM CDT
Astronomical Twilight 5:22 AM CDT 8:10 PM CDT
Moon 6:36 AM CDT (10/4) 6:13 PM CDT (10/4)
Length of Visible Light 12h 30m
Length of Day
11h 32m
Waning Crescent, 0% of the Moon is Illuminated
Oct 4
Waning Crescent
Oct 4
New
Oct 11
First Quarter
Oct 18
Full
Oct 26
Last Quarter

Hourly Weather History & Observations

Time (CDT) Temp. Dew Point Humidity Pressure Visibility Wind Dir Wind Speed Gust Speed Precip Events Conditions
12:31 AM 55.4 °F 53.6 °F 94% 29.91 in 10.0 mi ENE 3.5 mph - N/A   Overcast
12:40 AM 55.4 °F 53.6 °F 94% 29.92 in 10.0 mi East 4.6 mph - N/A   Overcast
12:54 AM 55.9 °F 54.0 °F 93% 29.94 in 10.0 mi ENE 4.6 mph - N/A   Overcast
1:54 AM 55.9 °F 54.0 °F 93% 29.94 in 10.0 mi ENE 3.5 mph - N/A   Overcast
2:26 AM 55.4 °F 53.6 °F 94% 29.93 in 10.0 mi NNE 4.6 mph - N/A   Overcast
2:34 AM 55.4 °F 53.6 °F 94% 29.93 in 10.0 mi NE 4.6 mph - N/A   Overcast
2:54 AM 55.9 °F 53.1 °F 90% 29.95 in 10.0 mi NE 3.5 mph - N/A   Overcast
3:49 AM 55.4 °F 53.6 °F 94% 29.95 in 10.0 mi NE 5.8 mph - 0.00 in   Overcast
3:54 AM 55.0 °F 53.1 °F 93% 29.96 in 10.0 mi NE 4.6 mph - 0.00 in   Overcast
4:29 AM 55.4 °F 51.8 °F 88% 29.96 in 10.0 mi Variable 5.8 mph - N/A   Overcast
4:54 AM 55.0 °F 53.1 °F 93% 29.99 in 10.0 mi Variable 3.5 mph - N/A   Overcast
5:24 AM 55.4 °F 51.8 °F 88% 29.97 in 10.0 mi ENE 3.5 mph - N/A   Overcast
5:54 AM 55.0 °F 52.0 °F 89% 29.99 in 10.0 mi ENE 3.5 mph - N/A   Overcast
6:54 AM 54.0 °F 52.0 °F 93% 30.01 in 10.0 mi NE 6.9 mph - N/A   Overcast
7:54 AM 54.0 °F 52.0 °F 93% 30.01 in 10.0 mi Variable 5.8 mph - N/A   Overcast
8:54 AM 54.0 °F 52.0 °F 93% 30.03 in 10.0 mi East 5.8 mph - N/A   Overcast
9:54 AM 54.0 °F 52.0 °F 93% 30.04 in 10.0 mi East 6.9 mph - N/A   Overcast
10:54 AM 54.0 °F 52.0 °F 93% 30.02 in 6.0 mi ENE 5.8 mph - N/A   Overcast
11:14 AM 53.6 °F 51.8 °F 94% 30.00 in 6.0 mi ENE 9.2 mph - N/A   Overcast
11:54 AM 54.0 °F 52.0 °F 93% 30.01 in 4.0 mi NE 9.2 mph 21.9 mph 0.00 in Rain Light Rain
12:40 PM 55.4 °F 53.6 °F 94% 30.04 in 6.0 mi East 3.5 mph - 0.01 in Rain Light Rain
12:54 PM 55.0 °F 53.1 °F 93% 30.04 in 10.0 mi ENE 5.8 mph - 0.01 in Rain Light Rain
1:54 PM 55.9 °F 54.0 °F 93% 30.06 in 10.0 mi SE 4.6 mph - 0.00 in Rain Light Rain
2:54 PM 55.9 °F 54.0 °F 93% 30.04 in 10.0 mi East 9.2 mph - 0.01 in   Overcast
3:54 PM 55.9 °F 54.0 °F 93% 30.04 in 10.0 mi East 10.4 mph - N/A   Overcast
4:54 PM 55.9 °F 53.1 °F 90% 30.05 in 10.0 mi East 9.2 mph - N/A   Overcast
5:54 PM 55.0 °F 53.1 °F 93% 30.04 in 10.0 mi East 15.0 mph 20.7 mph N/A   Overcast
6:54 PM 55.0 °F 52.0 °F 89% 30.04 in 10.0 mi East 11.5 mph 19.6 mph N/A   Overcast
7:54 PM 55.0 °F 52.0 °F 89% 30.03 in 10.0 mi East 13.8 mph 19.6 mph N/A   Overcast
8:54 PM 55.0 °F 52.0 °F 89% 30.05 in 10.0 mi East 9.2 mph - N/A   Overcast
9:54 PM 55.0 °F 52.0 °F 89% 30.06 in 10.0 mi East 10.4 mph - N/A   Overcast
10:54 PM 54.0 °F 52.0 °F 93% 30.05 in 10.0 mi East 13.8 mph 19.6 mph N/A   Overcast
11:02 PM 53.6 °F 51.8 °F 94% 30.03 in 10.0 mi East 11.5 mph 19.6 mph N/A   Overcast
11:43 PM 55.4 °F 53.6 °F 94% 30.01 in 9.0 mi East 12.7 mph 19.6 mph 0.00 in Rain , Thunderstorm Light Rain
11:54 PM 55.0 °F 53.1 °F 93% 30.02 in 7.0 mi East 10.4 mph - 0.01 in Rain Rain